User: anonymous   Login
Location: Coupvray
(48.8929°N, 2.7967°E)
Time: 22:39:15
(UTC+00:00)
Language:

Landsat 5 - Orbit

View from above orbital plane
View from above orbital plane
View from above satellite
View from above satellite

Ground track
Ground track

The orbit data is extracted from the following two-line orbital elements,

1 14780U 84021A   20269.89245995 +.00000129 +00000-0 +18126-4 0  9999
2 14780 098.1843 070.7632 0089673 193.4953 166.3866 14.92108032478754
Epoch (UTC): 25 September 2020 21:25:08
Eccentricity: 0.0089673
inclination: 98.1843°
perigee height: 529 km
apogee height: 654 km
right ascension of ascending node: 70.7632°
argument of perigee: 193.4953°
revolutions per day: 14.92108032
mean anomaly at epoch: 166.3866°
orbit number at epoch: 47875

The dashed part of the orbit path shows where the satellite is in the earth's shadow,  

DLR